Phoenix Deer Valley, AZ

4:39 AM MST on December 13, 2019 (GMT -0700)
Phoenix-Deer Valley Municipal

Weather History for KDVT - August, 2019

Change the Weather History Date:

Wednesday, August 7, 2019

  Actual Average Record
Temperature  
Mean Temperature 94 °F -  
Max Temperature 102 °F 100 °F 108 °F (2012)
Min Temperature 87 °F 81 °F 75 °F (2008)
Cooling Degree Days 30    
Growing Degree Days 44 (Base 50)    
Moisture  
Dew Point 62 °F    
Average Humidity 35    
Maximum Humidity 48    
Minimum Humidity 24    
Precipitation  
Precipitation 0.00 in - - ()
Sea Level Pressure  
Sea Level Pressure 29.83 in    
Wind  
Wind Speed 8 mph (West)    
Max Wind Speed 33 mph    
Max Gust Speed 54 mph    
Visibility 10 miles    
Events      
Averages and records for this station are not official NWS values.
T = Trace of Precipitation, MM = Missing Value Source: NWS Daily Summary

Daily Weather History Graph

Daily Weather History Graph

Search for Another Location

Airport or City:

Astronomy

Aug. 07, 2019 Rise Set
Actual Time 5:44 AM MST 7:23 PM MST
Civil Twilight 5:17 AM MST 7:49 PM MST
Nautical Twilight 4:45 AM MST 8:22 PM MST
Astronomical Twilight 4:11 AM MST 8:56 PM MST
Moon 12:59 PM MST (8/7) No Moon Set
Length of Visible Light 14h 32m
Length of Day
13h 38m
Waxing Crescent, 51% of the Moon is Illuminated
Aug 7
Waxing Crescent
Aug 15
Full
Aug 23
Last Quarter
Aug 30
New
Sep 5
First Quarter

Hourly Weather History & Observations

Time (MST) Temp. Heat Index Dew Point Humidity Pressure Visibility Wind Dir Wind Speed Gust Speed Precip Events Conditions
12:53 AM 91.0 °F 92.6 °F 64.0 °F 41% 29.80 in - North - - N/A   Unknown
1:53 AM - - - N/A% 29.88 in - North - - N/A   Unknown
2:53 AM - - - N/A% 29.91 in - North - - N/A   Unknown
3:53 AM - - - N/A% 29.90 in - North - - N/A   Unknown
4:53 AM - - - N/A% 29.91 in - North - - N/A   Unknown
5:53 AM - - - N/A% 29.92 in - North - - N/A   Unknown
6:53 AM 87.1 °F 88.9 °F 64.9 °F 48% 29.85 in 10.0 mi East 3.5 mph - N/A   Clear
7:53 AM 90.0 °F 91.7 °F 64.9 °F 43% 29.86 in 10.0 mi Calm Calm - N/A   Clear
8:53 AM 91.0 °F 93.0 °F 64.9 °F 42% 29.86 in 10.0 mi North - - N/A   Clear
9:53 AM 91.9 °F 93.3 °F 64.0 °F 39% 29.86 in 10.0 mi WSW 5.8 mph - N/A   Clear
10:53 AM 93.0 °F 94.6 °F 64.0 °F 38% 29.85 in 10.0 mi Variable 3.5 mph - N/A   Clear
11:53 AM 98.1 °F 100.7 °F 64.0 °F 33% 29.83 in 10.0 mi SW 9.2 mph - N/A   Clear
12:53 PM 99.0 °F 100.5 °F 63.0 °F 30% 29.81 in 10.0 mi SW 10.4 mph - N/A   Clear
1:53 PM 99.0 °F 100.5 °F 62.1 °F 30% 29.86 in 10.0 mi Variable 5.8 mph - N/A   Clear
2:53 PM 102.0 °F 102.7 °F 60.1 °F 25% 29.84 in 10.0 mi WSW 9.2 mph 20.7 mph N/A   Clear
3:53 PM 102.0 °F 102.2 °F 59.0 °F 24% 29.83 in 10.0 mi SW 9.2 mph 21.9 mph N/A   Clear
4:40 PM 100.0 °F 101.2 °F 61.0 °F 28% 29.83 in 9.0 mi West 33.4 mph 54.1 mph N/A   Squalls
4:48 PM 96.8 °F 97.1 °F 60.8 °F 30% 29.84 in 10.0 mi WNW 28.8 mph 40.3 mph N/A   Mostly Cloudy
4:53 PM 96.1 °F 96.0 °F 60.1 °F 30% 29.84 in 10.0 mi WNW 25.3 mph 34.5 mph N/A   Scattered Clouds
5:53 PM 93.0 °F 92.7 °F 60.1 °F 33% 29.83 in 10.0 mi NNW 15.0 mph - N/A   Clear
6:53 PM 93.0 °F 92.3 °F 59.0 °F 32% 29.74 in 10.0 mi NNW 5.8 mph - N/A   Partly Cloudy
7:53 PM 93.0 °F 93.8 °F 62.1 °F 36% 29.73 in 10.0 mi NNE 4.6 mph - N/A   Clear
8:53 PM 91.9 °F 92.9 °F 63.0 °F 38% 29.76 in 10.0 mi SW 4.6 mph - N/A   Clear
9:53 PM 89.1 °F 88.8 °F 60.1 °F 38% 29.80 in 10.0 mi NW 8.1 mph - N/A   Clear
10:53 PM 90.0 °F 88.8 °F 57.9 °F 34% 29.79 in 10.0 mi NW 8.1 mph - N/A   Clear
11:53 PM 89.1 °F 88.2 °F 59.0 °F 36% 29.78 in - North - - N/A   Unknown